Weather History for Valparaiso, IN

Change the Weather History Date:

Sunday, December 8, 2013

  Actual Average Record
Temperature  
Mean Temperature 18 °F 30 °F  
Max Temperature 25 °F 37 °F 49 °F (1999)
Min Temperature 10 °F 24 °F -2 °F (2005)
Degree Days  
Heating Degree Days 47 35  
Month to date heating degree days 277 266  
Since 1 July heating degree days 1663 1524  
Cooling Degree Days 0 0  
Month to date cooling degree days 0 0  
Year to date cooling degree days 810 713  
Moisture  
Dew Point 19 °F    
Average Humidity 88    
Maximum Humidity 100    
Minimum Humidity 69    
Precipitation  
Precipitation 0.03 in 0.08 in 0.28 in (2009)
Month to date precipitation 0.10 0.69  
Year to date precipitation 34.65 36.02  
Sea Level Pressure  
Sea Level Pressure 30.16 in    
Wind  
Wind Speed 10 mph (ESE)    
Max Wind Speed 18 mph    
Max Gust Speed 23 mph    
Visibility 5 miles    
Events Snow    
T = Trace of Precipitation, MM = Missing Value Source: NWS Daily Summary

Daily Weather History Graph

Daily Weather History Graph

Search for Another Location

Airport:

Trip Planner

Search our weather history database for the weather conditions in past years. The results will help you decide how hot, cold, wet, or windy it might be!

Date:

Astronomy

Dec. 08, 2013 Rise Set
Actual Time 7:01 AM CST 4:18 PM CST
Civil Twilight 6:30 AM CST 4:49 PM CST
Nautical Twilight 5:56 AM CST 5:24 PM CST
Astronomical Twilight 5:22 AM CST 5:57 PM CST
Moon 11:18 AM CST (12/8) 11:10 PM CST (12/8)
Length of Visible Light 10h 18m
Length of Day
9h 16m
Waxing Crescent, 40% of the Moon is Illuminated
Dec 8
Waxing Crescent
Dec 9
First Quarter
Dec 17
Full
Dec 25
Last Quarter
Jan 1
New

Hourly Weather History & Observations

Time (CST) Temp. Windchill Dew Point Humidity Pressure Visibility Wind Dir Wind Speed Gust Speed Precip Events Conditions
12:53 AM 10.9 °F 4.7 °F 9.0 °F 92% 30.59 in 10.0 mi NNE 3.5 mph - N/A   Clear
1:53 AM 10.9 °F 4.7 °F 9.0 °F 92% 30.57 in 10.0 mi NE 3.5 mph - N/A   Clear
2:53 AM 16.0 °F 5.3 °F 12.0 °F 84% 30.52 in 10.0 mi East 8.1 mph - N/A   Clear
3:53 AM 16.0 °F 6.3 °F 12.0 °F 84% 30.51 in 10.0 mi ENE 6.9 mph - N/A   Clear
4:53 AM 16.0 °F 5.3 °F 12.0 °F 84% 30.51 in 10.0 mi East 8.1 mph - N/A   Clear
5:53 AM 17.1 °F 7.6 °F 12.9 °F 84% 30.51 in 10.0 mi East 6.9 mph - N/A   Partly Cloudy
6:53 AM 17.1 °F 2.0 °F 12.0 °F 81% 30.45 in 10.0 mi East 16.1 mph - N/A   Overcast
7:53 AM 18.0 °F 5.4 °F 12.9 °F 81% 30.42 in 10.0 mi East 11.5 mph - N/A   Overcast
8:53 AM 19.0 °F 6.1 °F 12.9 °F 77% 30.41 in 10.0 mi East 12.7 mph - N/A   Overcast
9:53 AM 19.9 °F 5.7 °F 14.0 °F 78% 30.39 in 9.0 mi East 16.1 mph - N/A   Overcast
10:15 AM 19.4 °F 5.5 °F 15.8 °F 86% 30.33 in 2.0 mi East 15.0 mph - 0.00 in Snow Light Snow
10:35 AM 21.2 °F 7.3 °F 15.8 °F 80% 30.31 in 4.0 mi ENE 16.1 mph - 0.00 in Snow Light Snow
10:53 AM 21.0 °F 8.1 °F 15.1 °F 78% 30.36 in 4.0 mi East 13.8 mph - 0.00 in Snow Light Snow
11:09 AM 21.2 °F 8.3 °F 15.8 °F 80% 30.29 in 2.5 mi East 13.8 mph - 0.00 in Snow Light Snow
11:22 AM 21.2 °F 7.3 °F 15.8 °F 80% 30.27 in 4.0 mi East 16.1 mph - 0.00 in Snow Light Snow
11:53 AM 21.0 °F 8.6 °F 17.1 °F 85% 30.30 in 3.0 mi East 12.7 mph - 0.00 in Snow Light Snow
12:53 PM 21.9 °F 9.2 °F 15.1 °F 75% 30.25 in 10.0 mi East 13.8 mph - 0.00 in   Overcast
1:53 PM 24.1 °F 12.0 °F 16.0 °F 71% 30.19 in 10.0 mi East 13.8 mph - N/A   Overcast
2:03 PM 24.8 °F 11.5 °F 15.8 °F 69% 30.14 in 10.0 mi East 17.3 mph - N/A   Overcast
2:17 PM 24.8 °F 12.4 °F 15.8 °F 69% 30.13 in 10.0 mi East 15.0 mph 20.7 mph 0.00 in Snow Light Snow
2:43 PM 24.8 °F 12.9 °F 15.8 °F 69% 30.11 in 4.0 mi East 13.8 mph 23.0 mph 0.00 in Snow Light Snow
2:53 PM 24.1 °F 10.6 °F 17.1 °F 75% 30.14 in 4.0 mi East 17.3 mph - 0.00 in Snow Light Snow
3:01 PM 24.8 °F 11.1 °F 17.6 °F 74% 30.10 in 6.0 mi East 18.4 mph - 0.00 in Snow Light Snow
3:19 PM 24.8 °F 11.9 °F 17.6 °F 74% 30.09 in 10.0 mi East 16.1 mph 21.9 mph 0.00 in   Overcast
3:28 PM 24.8 °F 14.0 °F 17.6 °F 74% 30.09 in 10.0 mi East 11.5 mph 21.9 mph 0.00 in   Overcast
3:53 PM 23.0 °F 10.6 °F 17.1 °F 78% 30.11 in 8.0 mi East 13.8 mph - 0.00 in   Overcast
4:16 PM 23.0 °F 11.7 °F 19.4 °F 86% 30.07 in 2.5 mi East 11.5 mph - 0.00 in Snow Light Snow
4:31 PM 23.0 °F 10.6 °F 19.4 °F 86% 30.06 in 4.0 mi East 13.8 mph - 0.00 in Snow Light Snow
4:53 PM 23.0 °F 11.7 °F 19.9 °F 88% 30.08 in 4.0 mi East 11.5 mph - 0.00 in Snow Light Snow
5:15 PM 21.2 °F 10.1 °F 21.2 °F 100% 30.03 in 2.0 mi East 10.4 mph - 0.00 in Snow Light Snow
5:26 PM 21.2 °F 10.1 °F 21.2 °F 100% 30.04 in 1.8 mi East 10.4 mph - 0.00 in Snow Light Snow
5:48 PM 23.0 °F 13.1 °F 21.2 °F 93% 30.03 in 1.2 mi East 9.2 mph - 0.00 in Snow Light Snow
5:53 PM 23.0 °F 14.7 °F 21.9 °F 96% 30.06 in 1.2 mi East 6.9 mph - 0.00 in Snow Light Snow
6:36 PM 23.0 °F 13.9 °F 21.2 °F 93% 30.01 in 1.2 mi ESE 8.1 mph - 0.01 in Snow Light Snow
6:45 PM 23.0 °F 17.0 °F 21.2 °F 93% 30.01 in 1.0 mi ESE 4.6 mph - 0.01 in Snow Light Snow
6:53 PM 23.0 °F 15.8 °F 21.9 °F 96% 30.04 in 1.0 mi ESE 5.8 mph - 0.01 in Snow Light Snow
7:12 PM 23.0 °F 14.7 °F 23.0 °F 100% 30.00 in 1.5 mi ESE 6.9 mph - 0.00 in Snow Light Snow
7:35 PM 23.0 °F 14.7 °F 23.0 °F 100% 30.00 in 2.0 mi ESE 6.9 mph - 0.00 in Snow Light Snow
7:53 PM 23.0 °F 17.0 °F 23.0 °F 100% 30.03 in 2.0 mi SE 4.6 mph - 0.00 in Snow Light Snow
8:10 PM 23.0 °F 15.8 °F 23.0 °F 100% 30.00 in 1.8 mi SSE 5.8 mph - 0.01 in Snow Light Snow
8:21 PM 23.0 °F 17.0 °F 23.0 °F 100% 30.00 in 2.0 mi South 4.6 mph - 0.01 in Snow Light Snow
8:25 PM 23.0 °F 18.4 °F 23.0 °F 100% 29.99 in 1.8 mi South 3.5 mph - 0.01 in Snow Light Snow
8:53 PM 23.0 °F 17.0 °F 23.0 °F 100% 30.02 in 1.2 mi SSE 4.6 mph - 0.02 in Snow Light Snow
9:43 PM 23.0 °F 18.4 °F 23.0 °F 100% 29.97 in 2.0 mi SSE 3.5 mph - 0.00 in Snow Light Snow
9:53 PM 24.1 °F 18.2 °F 23.0 °F 96% 30.01 in 2.5 mi SSE 4.6 mph - 0.00 in Snow Light Snow
9:56 PM 24.8 °F 20.5 °F 23.0 °F 93% 29.97 in 2.0 mi South 3.5 mph - 0.00 in Snow Light Snow
10:00 PM 23.0 °F 17.0 °F 23.0 °F 100% 29.96 in 1.8 mi SSE 4.6 mph - 0.00 in Snow Light Snow
10:13 PM 24.8 °F 20.5 °F 23.0 °F 93% 29.96 in 1.8 mi SSE 3.5 mph - 0.00 in Snow Light Snow
10:35 PM 24.8 °F 19.1 °F 24.8 °F 100% 29.95 in 2.0 mi South 4.6 mph - 0.00 in Snow Light Snow
10:47 PM 24.8 °F 19.1 °F 24.8 °F 100% 29.95 in 3.0 mi South 4.6 mph - 0.00 in   Overcast
10:53 PM 24.1 °F 19.7 °F 24.1 °F 100% 29.99 in 3.0 mi South 3.5 mph - 0.00 in   Overcast
11:06 PM 24.8 °F 17.9 °F 24.8 °F 100% 29.94 in 4.0 mi South 5.8 mph - N/A   Overcast
11:53 PM 24.1 °F 13.7 °F 24.1 °F 100% 29.97 in 4.0 mi SSW 10.4 mph - N/A   Overcast